Find Starlink 37635

NORAD ID: 69029 Int'l Des: 2026-101 Owner: SPXS Country: US Constellation: starlink operational
LEOCIRCULARRETROGRADE

現在のビュー

3D地球を読み込み中...

About Starlink 37635

Starlink 37635 (NORAD 69029) is a starlink constellation satellite (v2 mini) launched May 6, 2026 by SPXS of US. It operates in LEO, CIRCULAR, RETROGRADE orbit with a mass of 575.00 kg.

次回通過

Passes for default location (London). Set your location on the main map for personalized predictions.

高度履歴

Loading altitude history...

軌道要素

1 69029U 26101E 26235.55347425 .00013858 00000-0 43067-3 0 9997
2 69029 97.2851 89.3985 0002040 90.1127 270.0350 15.33452767 16892
Epoch: Aug 23, 2026 • Age: 14 hours

現在のステータス

高度 489.3 km
遠地点 / 近地点 N/A
速度 7.62 km/s
衛星直下点 -58.41°S, 117.15°W
打ち上げ日 May 6, 2026
運用期間 0.2 years
タイプ internet

技術仕様

分類 Payload
質量 575.00 kg
乾燥質量 530.00 kg
総質量 575.00 kg
長さ 0.30 m
直径 4.10 m
スパン 29.00 m
形状 Box + pan
製造者 SPXS
バスタイプ Starlink V2MO
フェーズステータス In Orbit
所有者/国 SPXS/US

Most Searched